Southport, FL

5:06 PM CDT on August 24, 2016 (GMT -0500)
Northwest Florida Beaches International

Weather History for KECP - April, 2014

Change the Weather History Date:

Wednesday, April 2, 2014

  Actual Average Record
Temperature  
Mean Temperature 64 °F -  
Max Temperature 76 °F - 82 °F (2012)
Min Temperature 52 °F - 47 °F (2013)
Degree Days  
Heating Degree Days 1    
Cooling Degree Days 0    
Growing Degree Days 13 (Base 50)    
Moisture  
Dew Point 57 °F    
Average Humidity 79    
Maximum Humidity 97    
Minimum Humidity 60    
Precipitation  
Precipitation 0.00 in - 0.25 in (2016)
Month to date precipitation 0.00  
Year to date precipitation 18.71  
Sea Level Pressure  
Sea Level Pressure 30.15 in    
Wind  
Wind Speed 2 mph (SE)    
Max Wind Speed 21 mph    
Max Gust Speed 87 mph    
Visibility 5 miles    
Events Fog    
T = Trace of Precipitation, MM = Missing Value Source: NWS Daily Summary

Daily Weather History Graph

Daily Weather History Graph

Search for Another Location

Airport or City:

Trip Planner

Search our weather history database for the weather conditions in past years. The results will help you decide how hot, cold, wet, or windy it might be!

Date:

Astronomy

Apr. 02, 2014 Rise Set
Actual Time 7:31 AM EDT 8:02 PM EDT
Civil Twilight 7:06 AM EDT 8:26 PM EDT
Nautical Twilight 6:38 AM EDT 8:55 PM EDT
Astronomical Twilight 6:09 AM EDT 9:24 PM EDT
Moon 9:26 AM EDT (4/2) 11:12 PM EDT (4/2)
Length of Visible Light 13h 19m
Length of Day
12h 31m
Waxing Crescent, 10% of the Moon is Illuminated
Apr 2
Waxing Crescent
Apr 7
First Quarter
Apr 15
Full
Apr 22
Last Quarter
Apr 29
New

Hourly Weather History & Observations

Time (EDT) Temp. Dew Point Humidity Pressure Visibility Wind Dir Wind Speed Gust Speed Precip Events Conditions
12:51 AM 53.6 °F 50.0 °F 88% 30.13 in 2.0 mi Calm Calm - N/A   Clear
12:53 AM 54.0 °F 50.0 °F 86% 30.17 in 2.5 mi Calm Calm - N/A   Clear
1:00 AM 53.6 °F 51.8 °F 94% 30.13 in 5.0 mi Calm Calm - N/A   Clear
1:53 AM 53.1 °F 50.0 °F 89% 30.16 in 6.0 mi Calm Calm - N/A   Clear
2:30 AM 53.6 °F 51.8 °F 94% 30.12 in 2.5 mi Calm Calm - N/A   Clear
2:44 AM 51.8 °F 48.2 °F 88% 30.12 in 1.5 mi Calm Calm - N/A   Partly Cloudy
2:53 AM 52.0 °F 48.9 °F 89% 30.15 in 2.5 mi Calm Calm - N/A   Mostly Cloudy
3:04 AM 51.8 °F 48.2 °F 88% 30.11 in 1.2 mi Calm Calm - N/A   Mostly Cloudy
3:10 AM 53.6 °F 50.0 °F 88% 30.11 in 0.2 mi Calm Calm - N/A Fog Fog
3:30 AM 53.6 °F 51.8 °F 94% 30.10 in 0.5 mi Calm Calm - N/A Fog Fog
3:44 AM 53.6 °F 51.8 °F 94% 30.10 in 0.2 mi Calm Calm - N/A Fog Fog
3:53 AM 53.1 °F 51.1 °F 93% 30.14 in 0.2 mi Calm Calm - N/A Fog Fog
4:53 AM 54.0 °F 52.0 °F 93% 30.14 in 0.2 mi Calm Calm - N/A Fog Fog
5:36 AM 57.2 °F 55.4 °F 94% 30.11 in 0.2 mi Calm Calm - N/A Fog Fog
5:53 AM 57.9 °F 55.0 °F 90% 30.14 in 0.2 mi Calm Calm - N/A Fog Fog
6:06 AM 59.0 °F 55.4 °F 88% 30.11 in 0.8 mi Calm Calm - N/A   Overcast
6:12 AM 59.0 °F 57.2 °F 94% 30.11 in 2.0 mi Calm Calm - N/A   Overcast
6:22 AM 59.0 °F 57.2 °F 94% 30.11 in 3.0 mi Calm Calm - N/A   Overcast
6:53 AM 59.0 °F 57.0 °F 93% 30.16 in 4.0 mi NE 3.5 mph - N/A   Overcast
8:36 AM 60.8 °F 57.2 °F 88% 30.14 in 2.5 mi ENE 3.5 mph - N/A   Overcast
8:53 AM 61.0 °F 59.0 °F 93% 30.18 in 0.5 mi NE 3.5 mph - N/A Fog Fog
9:53 AM 63.0 °F 61.0 °F 93% 30.19 in 0.5 mi East 3.5 mph - N/A Fog Fog
10:29 AM 64.4 °F 62.6 °F 94% 30.16 in 5.0 mi SSE 3.5 mph - N/A   Overcast
10:53 AM 64.9 °F 61.0 °F 87% 30.21 in 8.0 mi SE 8.1 mph - N/A   Overcast
11:45 AM 66.2 °F 62.6 °F 88% 30.19 in 10.0 mi South 8.1 mph - N/A   Overcast
11:53 AM 68.0 °F 62.1 °F 81% 30.22 in 10.0 mi SSE 5.8 mph - N/A   Overcast
12:36 PM 69.8 °F 60.8 °F 73% 30.18 in 10.0 mi Variable 3.5 mph - N/A   Scattered Clouds
12:53 PM 71.1 °F 61.0 °F 70% 30.21 in 10.0 mi Variable 5.8 mph - N/A   Scattered Clouds
1:53 PM 73.0 °F 62.1 °F 68% 30.21 in 10.0 mi South 11.5 mph - N/A   Partly Cloudy
2:53 PM 73.0 °F 61.0 °F 66% 30.19 in 10.0 mi South 11.5 mph - N/A   Scattered Clouds
3:53 PM 75.0 °F 62.1 °F 64% 30.17 in 10.0 mi South 9.2 mph - N/A   Partly Cloudy
4:53 PM 75.9 °F 62.1 °F 62% 30.16 in 10.0 mi SSE 8.1 mph - N/A   Partly Cloudy
5:53 PM 75.0 °F 60.1 °F 60% 30.15 in 10.0 mi South 6.9 mph - N/A   Clear
6:53 PM 73.0 °F 61.0 °F 66% 30.15 in 10.0 mi SSE 6.9 mph - N/A   Clear
7:53 PM 69.1 °F 62.1 °F 78% 30.15 in 10.0 mi SE 4.6 mph - N/A   Clear
8:53 PM 66.9 °F 61.0 °F 81% 30.16 in 10.0 mi SSE 4.6 mph - N/A   Clear
9:53 PM 66.0 °F 61.0 °F 84% 30.16 in 10.0 mi SSE 3.5 mph - N/A   Clear
10:53 PM 66.9 °F 62.1 °F 84% 30.17 in 10.0 mi SE 5.8 mph - N/A   Clear
11:53 PM 66.9 °F 62.1 °F 84% 30.16 in 10.0 mi SE 5.8 mph - N/A   Clear